Weather History for KLIT - July, 2004

Change the Weather History Date:

Friday, July 16, 2004

  Actual Average Record
Temperature  
Mean Temperature 82 °F 83 °F  
Max Temperature 90 °F 93 °F 108 °F (1980)
Min Temperature 75 °F 73 °F 59 °F (1990)
Degree Days  
Heating Degree Days 0 0  
Month to date heating degree days 0  
Since 1 June heating degree days 0  
Since 1 July heating degree days 0  
Cooling Degree Days 17 18  
Month to date cooling degree days 281  
Year to date cooling degree days 987  
Since 1 June cooling degree days 706  
Growing Degree Days 32 (Base 50)    
Moisture  
Dew Point 75 °F    
Average Humidity 83    
Maximum Humidity 100    
Minimum Humidity 63    
Precipitation  
Precipitation 0.48 in 0.10 in 2.53 in (1984)
Month to date precipitation 1.78  
Year to date precipitation 27.33  
Snow  
Snow 0.00 in 0.00 in - ()
Month to date snowfall 0.0  
Since 1 June snowfall 0.0  
Since 1 July snowfall 0.0  
Snow Depth -    
Sea Level Pressure  
Sea Level Pressure 29.86 in    
Wind  
Wind Speed 4 mph (East)    
Max Wind Speed 14 mph    
Max Gust Speed 24 mph    
Visibility 6 miles    
Events Rain , Thunderstorm    
T = Trace of Precipitation, MM = Missing Value Source: NWS Daily Summary

Daily Weather History Graph

Daily Weather History Graph

Search for Another Location

Airport or City:

Trip Planner

Search our weather history database for the weather conditions in past years. The results will help you decide how hot, cold, wet, or windy it might be!

Date:

Astronomy

Jul. 16, 2004 Rise Set
Actual Time 6:07 AM CDT 8:21 PM CDT
Civil Twilight 5:39 AM CDT 8:50 PM CDT
Nautical Twilight 5:03 AM CDT 9:25 PM CDT
Astronomical Twilight 4:25 AM CDT 10:03 PM CDT
Moon 5:03 AM CDT (7/16) 8:19 PM CDT (7/16)
Length of Visible Light 15h 11m
Length of Day
14h 13m
Waning Crescent, 1% of the Moon is Illuminated
Jul 16
Waning Crescent
Jul 17
New
Jul 24
First Quarter
Jul 31
Full
Aug 7
Last Quarter

Hourly Weather History & Observations

Time (CDT) Temp. Heat Index Dew Point Humidity Pressure Visibility Wind Dir Wind Speed Gust Speed Precip Events Conditions
12:53 AM 78.1 °F - 75.0 °F 90% 29.89 in 7.0 mi Calm Calm - N/A   Scattered Clouds
1:53 AM 78.1 °F - 75.0 °F 90% 29.88 in 7.0 mi Calm Calm - N/A   Scattered Clouds
2:53 AM 78.1 °F - 75.0 °F 90% 29.89 in 7.0 mi Calm Calm - N/A   Partly Cloudy
3:53 AM 77.0 °F - 75.0 °F 94% 29.87 in 7.0 mi Calm Calm - N/A   Partly Cloudy
4:53 AM 77.0 °F - 75.9 °F 96% 29.86 in 6.0 mi Calm Calm - N/A   Partly Cloudy
5:53 AM 75.9 °F - 75.0 °F 97% 29.88 in 5.0 mi ENE 3.5 mph - N/A   Mostly Cloudy
6:53 AM 77.0 °F - 75.0 °F 94% 29.88 in 5.0 mi Calm Calm - N/A   Overcast
7:53 AM 78.1 °F - 77.0 °F 96% 29.88 in 5.0 mi SSW 4.6 mph - N/A   Overcast
8:53 AM 80.1 °F 85.4 °F 75.9 °F 87% 29.91 in 6.0 mi Calm Calm - N/A   Overcast
9:53 AM 82.0 °F 89.4 °F 75.9 °F 82% 29.91 in 7.0 mi WSW 8.1 mph - N/A   Overcast
10:53 AM 84.0 °F 92.6 °F 75.9 °F 76% 29.90 in 7.0 mi West 5.8 mph - N/A   Overcast
11:53 AM 87.1 °F 98.8 °F 77.0 °F 72% 29.92 in 7.0 mi WSW 5.8 mph - N/A   Overcast
12:53 PM 86.0 °F 93.8 °F 73.9 °F 67% 29.92 in 7.0 mi North 13.8 mph 24.2 mph N/A   Mostly Cloudy
1:53 PM 86.0 °F 92.2 °F 72.0 °F 63% 29.91 in 7.0 mi ENE 11.5 mph - N/A   Overcast
2:53 PM 86.0 °F 92.2 °F 72.0 °F 63% 29.86 in 7.0 mi SE 9.2 mph - N/A   Mostly Cloudy
3:53 PM 86.0 °F 93.0 °F 73.0 °F 65% 29.82 in 7.0 mi South 8.1 mph - N/A   Mostly Cloudy
4:53 PM 89.1 °F 101.4 °F 77.0 °F 67% 29.80 in 7.0 mi Variable 4.6 mph - N/A   Mostly Cloudy
5:53 PM 89.1 °F 101.4 °F 77.0 °F 67% 29.79 in 7.0 mi South 8.1 mph - N/A   Mostly Cloudy
6:53 PM 89.1 °F 103.2 °F 78.1 °F 70% 29.81 in 7.0 mi SE 4.6 mph - N/A   Mostly Cloudy
7:53 PM 84.9 °F 95.3 °F 77.0 °F 77% 29.81 in 7.0 mi East 8.1 mph - N/A   Overcast
8:53 PM 82.9 °F 90.8 °F 75.9 °F 79% 29.82 in 7.0 mi NNE 8.1 mph - N/A   Overcast
9:32 PM 80.6 °F 85.4 °F 73.4 °F 79% 29.82 in 7.0 mi NE 9.2 mph - N/A Thunderstorm Thunderstorm
9:53 PM 81.0 °F 86.2 °F 73.9 °F 79% 29.82 in 7.0 mi NE 11.5 mph - N/A Thunderstorm Thunderstorm
10:53 PM 78.1 °F - 75.0 °F 90% 29.83 in 7.0 mi NE 8.1 mph - N/A Thunderstorm Thunderstorm
11:05 PM 77.0 °F - 75.2 °F 94% 29.84 in 4.0 mi ENE 11.5 mph - 0.08 in Rain , Thunderstorm Heavy Thunderstorms and Rain
11:11 PM 75.2 °F - 75.2 °F 100% 29.84 in 2.0 mi North 3.5 mph - 0.14 in Rain , Thunderstorm Heavy Thunderstorms and Rain
11:28 PM 75.2 °F - 75.2 °F 100% 29.85 in 3.0 mi ESE 6.9 mph - 0.43 in Rain , Thunderstorm Light Thunderstorms and Rain
11:53 PM 75.0 °F - 73.9 °F 96% 29.85 in 4.0 mi SE 4.6 mph - 0.48 in Rain , Thunderstorm Light Thunderstorms and Rain